Dewpoint
70 74 76 76 76 76 76 76 75 75 74 74 73 71 72 73 72 71 69 67 69 69 68 68 69 70 69 70 71 71 71 70 70 69 69 69 69 68 67 68 67 63 66
72 73 75 76 76 76 76 76 75 75 74 75 74 72 72 72 72 71 69 67 67 69 70 70 68 69 71 71 71 70 70 69 68 68 67 67 67 68 66 68 67 64 66
71 72 74 75 75 76 76 75 75 75 75 75 74 73 72 72 72 71 70 68 69 70 71 70 69 71 70 71 70 70 69 69 70 68 66 64 64 67 66 65 65 66 65
70 72 72 75 75 76 76 75 75 75 75 75 74 73 73 72 72 72 70 70 71 71 71 71 72 71 71 70 69 69 68 68 68 67 60 61 62 66 66 65 65 65 65
68 71 72 74 75 76 75 75 75 75 75 74 74 73 73 73 72 72 72 71 72 72 71 72 71 71 70 70 68 67 65 66 66 63 61 61 61 64 66 65 64 64 65
64 70 73 74 74 75 75 75 75 75 75 74 74 73 73 73 73 72 71 72 72 71 71 71 70 69 69 69 68 65 65 65 64 60 61 64 62 65 65 64 64 64 63
64 66 72 74 74 73 74 74 74 74 74 74 74 73 73 72 72 72 72 72 72 72 72 70 69 68 68 68 66 65 64 64 58 60 61 62 62 65 65 65 64 64 65
63 66 69 72 73 72 73 74 74 74 74 74 74 73 73 72 72 72 72 72 72 71 71 70 68 67 66 66 65 64 65 65 60 61 62 62 63 64 64 63 64 64 63
60 63 64 70 70 71 72 72 73 73 73 73 73 73 72 71 71 72 72 72 71 71 70 69 67 66 66 65 65 64 64 63 59 61 61 62 63 64 64 63 63 63 63
58 60 61 63 70 70 71 71 71 72 71 72 71 71 70 69 70 70 70 71 71 70 70 67 67 66 65 65 65 64 64 62 58 61 62 63 66 64 64 64 63 63 63
58 58 59 60 62 70 69 70 70 70 70 70 70 68 68 70 69 68 68 69 70 70 69 68 67 66 66 65 65 64 63 57 58 61 62 66 65 64 63 63 63 63 63
49 56 58 58 60 68 68 69 70 71 71 70 70 69 69 68 68 67 68 68 69 69 68 67 66 66 63 61 61 63 59 56 58 61 63 66 64 63 63 63 62 62 62
48 56 56 56 60 63 67 68 67 68 69 69 69 69 68 68 67 68 69 68 67 65 65 65 64 60 55 55 56 57 55 56 58 60 64 65 64 63 63 63 62 62 62
50 55 56 57 59 61 62 65 65 66 66 67 68 68 68 67 66 66 67 67 65 64 62 60 57 56 51 50 52 52 53 55 59 61 63 64 65 63 63 62 62 62 61
51 54 55 57 59 60 60 65 64 65 65 65 67 67 67 65 65 64 64 66 65 62 58 55 55 54 52 51 52 52 53 54 58 60 62 63 64 64 63 63 62 62 61
51 54 56 56 58 59 61 61 65 63 64 67 67 67 65 64 63 62 62 64 63 60 58 56 57 56 54 53 52 54 55 55 56 59 61 62 64 65 63 63 62 62 62
50 54 55 57 58 59 60 60 63 62 66 67 67 66 64 63 62 60 60 62 60 58 57 56 56 57 56 55 55 55 55 55 56 57 59 61 63 63 65 63 63 63 62
53 54 55 57 60 60 60 60 58 65 66 66 67 66 64 63 61 59 60 59 59 58 56 56 57 56 57 57 56 56 56 56 56 56 57 60 61 61 63 65 66 64 64
54 53 54 57 59 60 60 60 60 65 65 66 66 66 64 63 63 61 64 59 58 57 56 57 57 57 57 57 56 56 56 57 56 56 57 57 59 60 60 63 64 65 65
54 54 54 57 59 60 60 60 59 66 65 64 65 65 64 63 63 63 64 61 58 57 57 57 57 57 57 57 54 55 56 56 57 57 56 56 57 58 59 60 61 62 63
53 54 55 57 59 59 58 58 58 61 62 63 63 64 62 62 62 62 63 61 58 58 57 56 56 56 56 57 55 55 55 55 55 55 56 55 56 57 58 58 60 60 61
51 54 55 57 59 59 60 59 59 59 58 58 59 60 60 60 60 62 61 60 59 58 57 55 56 56 57 57 55 57 55 57 57 57 57 56 56 56 56 56 57 58 58
49 54 55 58 58 59 60 59 61 61 60 58 59 58 60 58 59 62 61 60 59 59 58 56 57 56 57 57 58 58 54 53 54 55 55 56 55 56 56 56 56 56 57
47 54 56 58 58 59 59 58 58 59 57 57 58 59 60 59 58 60 60 58 59 59 58 58 58 58 59 58 59 59 59 58 54 54 56 56 56 55 56 57 56 56 56
52 55 57 58 58 58 58 58 58 57 58 57 57 60 60 60 59 62 61 60 60 59 59 58 58 58 60 60 60 59 59 58 58 56 54 56 57 55 55 55 55 57 57
55 56 58 58 57 58 58 58 56 60 59 58 58 59 60 60 61 60 61 61 61 60 59 59 60 60 61 61 61 60 59 58 58 57 55 54 55 56 54 53 53 55 55
Lifted_Index
-5 -5 -5 -6 -6 -6 -6 -6 -5 -5 -4 -3 -2 -1 -2 -2 -2 -0 2 3 3 3 3 3 2 2 2 1 1 1 2 2 3 3 4 4 4 4 4 4 4 4 4
-5 -5 -5 -6 -6 -6 -6 -6 -6 -5 -4 -3 -2 -2 -2 -2 -2 -0 2 3 3 2 2 2 2 2 1 1 1 2 2 3 3 4 4 4 4 4 4 4 4 4 4
-5 -5 -5 -5 -6 -6 -6 -6 -6 -5 -5 -4 -3 -2 -2 -2 -2 -1 1 2 2 1 1 2 2 2 1 1 2 2 2 3 3 4 5 5 5 4 4 4 4 4 4
-4 -5 -5 -5 -5 -6 -6 -6 -6 -5 -5 -4 -3 -3 -2 -2 -2 -1 0 1 1 1 1 1 1 1 1 2 2 3 3 4 4 5 6 5 5 5 4 4 4 4 4
-4 -4 -5 -5 -5 -5 -6 -6 -6 -6 -5 -5 -4 -3 -2 -2 -2 -1 -0 0 0 1 1 1 1 2 2 2 3 4 5 5 5 6 6 5 5 5 4 5 5 5 5
-2 -4 -5 -5 -5 -5 -5 -6 -6 -6 -5 -5 -4 -3 -3 -2 -2 -1 -1 -0 0 0 1 1 2 2 2 3 4 5 6 6 6 6 6 5 5 4 4 5 5 5 5
-1 -3 -4 -5 -5 -5 -5 -6 -6 -6 -5 -5 -4 -4 -3 -2 -2 -1 -1 -1 -0 0 1 2 3 3 3 4 4 5 6 6 6 6 5 5 5 4 5 5 5 5 5
0 -1 -4 -5 -5 -5 -5 -5 -6 -6 -5 -5 -4 -4 -3 -2 -2 -1 -1 -1 -0 0 1 2 3 4 4 4 5 6 6 6 6 5 5 5 5 5 5 5 5 5 5
2 0 -2 -4 -5 -5 -5 -5 -5 -5 -5 -5 -4 -4 -3 -2 -2 -1 -1 -0 0 1 1 2 3 4 5 5 5 6 6 6 5 5 5 5 5 5 5 5 5 5 5
5 2 -1 -3 -4 -5 -5 -5 -5 -5 -4 -4 -4 -3 -3 -2 -1 -1 -1 -0 0 1 2 3 4 4 5 5 6 6 6 6 6 5 5 5 5 5 5 5 5 5 5
7 5 2 -1 -3 -4 -4 -4 -4 -4 -4 -4 -3 -3 -3 -2 -1 -0 -0 0 1 1 2 3 4 5 6 6 7 7 6 6 6 5 5 5 4 5 5 5 5 5 5
8 7 4 0 -2 -3 -4 -4 -4 -4 -4 -3 -3 -3 -3 -2 -1 -0 0 0 1 2 3 4 5 6 7 7 7 7 6 6 6 5 5 5 5 5 5 5 5 6 6
8 7 6 3 0 -1 -2 -3 -4 -4 -3 -3 -3 -2 -2 -1 -0 -0 0 1 1 2 4 5 6 7 8 8 8 7 6 6 6 5 5 5 5 5 5 5 5 6 6
6 6 6 5 3 2 0 -1 -3 -3 -3 -3 -3 -2 -2 -1 -0 0 0 1 2 3 5 7 7 8 9 8 8 7 6 6 6 5 5 5 5 5 5 5 5 5 5
5 5 6 6 5 4 2 1 -2 -3 -3 -3 -3 -2 -2 -1 -0 0 1 1 2 4 6 7 7 7 8 8 7 7 6 6 5 5 5 5 4 4 4 4 5 5 5
4 5 6 7 6 5 4 2 -1 -3 -3 -3 -3 -2 -2 -1 -0 0 1 1 2 4 6 6 6 6 6 7 6 6 6 5 5 5 5 5 4 4 4 4 4 4 4
3 4 5 6 6 6 4 3 0 -2 -3 -3 -3 -2 -2 -1 -0 1 1 2 2 4 5 5 5 5 5 6 5 5 5 5 5 5 5 5 4 4 4 3 3 3 3
2 3 5 6 6 5 5 3 1 -1 -2 -3 -3 -2 -2 -1 -0 1 1 2 3 4 4 5 5 5 5 5 5 4 5 5 4 4 4 4 4 4 4 3 3 2 2
2 3 5 6 5 5 4 4 2 -0 -2 -2 -2 -2 -1 -1 -0 0 1 2 3 4 4 4 4 4 4 4 4 4 4 4 4 4 4 4 4 4 3 3 3 2 2
2 4 6 6 5 5 4 4 3 1 -1 -2 -2 -2 -1 -1 -0 0 1 2 3 3 4 4 4 4 4 4 4 4 4 4 4 4 4 4 4 3 3 3 3 2 2
2 3 5 6 5 4 5 5 4 2 -1 -1 -1 -1 -1 -1 0 0 1 2 2 3 4 4 4 4 4 4 4 4 4 4 3 3 4 4 3 3 3 3 3 2 2
2 3 4 5 4 4 5 5 4 2 0 -0 -0 -1 -0 -0 0 1 1 1 2 3 3 4 4 4 4 4 4 3 3 3 2 3 3 3 3 3 3 3 3 3 3
3 3 4 4 4 4 5 5 3 2 1 1 1 1 0 1 1 1 1 1 1 2 3 3 4 4 4 4 3 3 2 2 2 2 2 2 2 2 2 3 3 3 3
3 3 3 3 3 4 5 5 4 2 2 1 1 1 1 1 1 1 1 1 1 2 2 3 3 3 3 3 3 2 2 1 2 2 2 2 2 2 2 2 3 3 3
3 2 2 3 3 4 5 5 5 3 2 2 2 1 1 1 1 1 1 1 1 2 2 3 3 3 3 2 2 1 1 1 1 1 1 1 1 2 2 3 3 3 3
2 2 2 2 3 4 5 6 5 3 2 2 2 1 1 1 1 1 1 1 1 2 2 3 3 3 2 1 1 1 1 1 1 1 1 1 1 2 3 3 4 4 4